K9BM Weather Reports


time (UTC)temp
C
wind
direction
speed
KPH
gust
KPH
rain 1hr
cm
rain 24hr
cm
rain mn
cm
humidity
%
barometer
mb
20260508185505 17 277 17.7 32.2 0.00 0.05 0.00 38 1008.8
20260508185005 17 275 24.1 32.2 0.00 0.05 0.00 37 1008.9
20260508184005 17 261 20.9 38.6 0.00 0.05 0.00 37 1008.9
20260508183005 17 286 24.1 37.0 0.00 0.05 0.00 41 1009.1
20260508182505 17 286 22.5 33.8 0.00 0.05 0.00 39 1009.1
20260508182005 17 277 19.3 33.8 0.00 0.05 0.00 42 1009.2
20260508181505 17 286 19.3 27.4 0.00 0.05 0.00 42 1009.2
20260508181005 17 282 20.9 29.0 0.00 0.05 0.00 41 1009.3
20260508180005 17 271 20.9 40.2 0.00 0.05 0.00 42 1009.4
20260508175505 17 276 20.9 40.2 0.00 0.05 0.00 41 1009.6
20260508174505 17 284 22.5 38.6 0.00 0.05 0.00 42 1009.8
20260508173505 17 272 20.9 32.2 0.00 0.05 0.00 42 1010.0
20260508173005 17 282 22.5 32.2 0.00 0.05 0.00 40 1010.1
20260508172505 17 289 25.7 32.2 0.00 0.05 0.00 42 1010.1
20260508172005 17 279 24.1 35.4 0.00 0.05 0.00 43 1010.2
20260508171504 17 286 19.3 35.4 0.00 0.05 0.00 45 1010.2
20260508171005 17 285 20.9 35.4 0.00 0.05 0.00 44 1010.1
20260508170005 16 279 20.9 32.2 0.00 0.05 0.00 45 1010.1
20260508165505 16 285 20.9 27.4 0.00 0.05 0.00 45 1010.2
20260508164505 16 257 20.9 29.0 0.00 0.05 0.00 48 1010.3
20260508164005 16 255 19.3 27.4 0.00 0.05 0.00 49 1010.3
20260508163505 16 258 19.3 27.4 0.00 0.05 0.00 50 1010.4
20260508163005 15 286 19.3 25.7 0.00 0.05 0.00 51 1010.3
20260508162504 15 272 20.9 29.0 0.00 0.05 0.00 52 1010.4
20260508161505 15 263 17.7 32.2 0.00 0.05 0.00 53 1010.4
20260508161005 15 252 22.5 32.2 0.00 0.05 0.00 52 1010.3
20260508160005 15 261 19.3 27.4 0.00 0.05 0.00 55 1010.4
20260508155505 15 250 17.7 25.7 0.00 0.05 0.00 55 1010.4
20260508155005 14 268 19.3 25.7 0.00 0.05 0.00 55 1010.5
20260508154505 14 270 16.1 22.5 0.00 0.05 0.00 55 1010.6
20260508153505 13 245 8.0 14.5 0.00 0.05 0.00 57 1010.7
20260508153004 13 262 6.4 12.9 0.00 0.05 0.00 58 1010.8
20260508152504 13 241 4.8 12.9 0.00 0.05 0.00 59 1010.9
20260508152004 13 254 8.0 12.9 0.00 0.05 0.00 62 1010.9
20260508151505 12 265 4.8 14.5 0.00 0.05 0.00 61 1011.0
20260508151004 12 267 9.7 19.3 0.00 0.05 0.00 61 1011.1
20260508150005 12 268 14.5 19.3 0.00 0.05 0.00 61 1011.2
20260508145505 12 254 14.5 19.3 0.00 0.05 0.00 59 1011.3
20260508145005 11 240 9.7 14.5 0.00 0.05 0.00 60 1011.4
20260508144504 11 252 9.7 14.5 0.00 0.05 0.00 62 1011.4
20260508144005 11 271 9.7 16.1 0.00 0.05 0.00 64 1011.4
20260508143505 11 265 11.3 19.3 0.00 0.05 0.00 64 1011.4
20260508142505 11 251 11.3 19.3 0.00 0.05 0.00 64 1011.5
20260508142005 10 241 11.3 16.1 0.00 0.05 0.00 65 1011.5
20260508141005 9 230 9.7 14.5 0.00 0.05 0.00 69 1011.6
20260508135508 9 212 9.7 16.1 0.00 0.05 0.00 68 1011.6
20260508135005 9 227 11.3 19.3 0.00 0.05 0.00 68 1011.7
20260508134505 9 233 9.7 19.3 0.00 0.05 0.00 68 1011.6
20260508134005 8 232 11.3 16.1 0.00 0.05 0.00 69 1011.7
20260508133005 8 218 9.7 14.5 0.00 0.05 0.00 69 1011.6
20260508132504 8 225 9.7 14.5 0.00 0.05 0.00 69 1011.6
20260508132005 9 213 9.7 14.5 0.00 0.05 0.00 68 1011.7
20260508131005 9 231 8.0 14.5 0.00 0.05 0.00 67 1011.6
20260508130005 10 228 9.7 19.3 0.00 0.05 0.00 67 1011.5
20260508125505 9 225 11.3 19.3 0.00 0.05 0.00 67 1011.4
20260508124504 8 228 11.3 19.3 0.00 0.05 0.00 69 1011.3
20260508124004 8 226 9.7 16.1 0.00 0.05 0.00 70 1011.3
20260508123505 8 224 11.3 19.3 0.00 0.05 0.00 70 1011.3
20260508122505 8 222 11.3 19.3 0.00 0.05 0.00 71 1011.2
20260508122005 8 200 14.5 19.3 0.00 0.05 0.00 72 1011.1
20260508121505 8 199 11.3 22.5 0.00 0.05 0.00 72 1011.1
20260508120005 8 212 9.7 19.3 0.00 0.05 0.00 71 1011.2
20260508115504 8 222 9.7 20.9 0.00 0.05 0.00 71 1011.2
20260508115005 8 204 14.5 20.9 0.00 0.05 0.00 72 1011.1
20260508114504 8 208 11.3 19.3 0.00 0.05 0.00 73 1011.1
20260508114005 8 206 11.3 20.9 0.00 0.05 0.00 74 1011.0
20260508113504 8 211 12.9 20.9 0.00 0.05 0.00 74 1011.1
20260508113005 8 204 16.1 20.9 0.00 0.05 0.00 74 1011.0
20260508112504 8 206 12.9 20.9 0.00 0.05 0.00 74 1011.1
20260508112004 8 205 12.9 20.9 0.00 0.05 0.00 74 1011.0
20260508111505 8 208 11.3 20.9 0.00 0.05 0.00 74 1011.1
20260508110004 8 226 8.0 14.5 0.00 0.05 0.00 74 1011.1
20260508105504 8 237 9.7 14.5 0.00 0.05 0.00 73 1011.2
20260508104005 8 244 11.3 19.3 0.00 0.05 0.00 73 1011.2
20260508103505 8 236 12.9 20.9 0.00 0.05 0.00 72 1011.2
20260508103005 8 241 14.5 20.9 0.00 0.05 0.00 73 1011.2
20260508102504 8 233 16.1 20.9 0.00 0.05 0.00 73 1011.1
20260508102005 7 233 12.9 19.3 0.00 0.05 0.00 74 1011.0
20260508101504 7 233 12.9 19.3 0.00 0.05 0.00 75 1010.9
20260508101005 7 227 11.3 19.3 0.00 0.05 0.00 76 1010.9
20260508100004 6 233 11.3 14.5 0.00 0.05 0.00 78 1010.9
20260508095504 7 234 8.0 11.3 0.00 0.05 0.00 78 1010.9
20260508095005 7 233 8.0 14.5 0.00 0.05 0.00 77 1010.9
20260508094505 7 231 8.0 14.5 0.00 0.05 0.00 76 1010.9
20260508094005 7 242 9.7 16.1 0.00 0.05 0.00 75 1010.9
20260508093504 7 231 11.3 16.1 0.00 0.05 0.00 75 1010.8
20260508093004 7 242 11.3 19.3 0.00 0.05 0.00 75 1010.8
20260508092504 8 235 9.7 19.3 0.00 0.05 0.00 75 1010.8
20260508092004 8 238 11.3 19.3 0.00 0.05 0.00 74 1010.9
20260508091005 8 237 14.5 19.3 0.00 0.05 0.00 74 1010.8
20260508090005 8 234 14.5 19.3 0.00 0.05 0.00 74 1010.8
20260508085504 8 238 11.3 16.1 0.00 0.05 0.00 75 1010.8
20260508085005 8 238 9.7 16.1 0.00 0.05 0.00 75 1010.8
20260508084505 8 230 9.7 16.1 0.00 0.05 0.00 75 1010.7
20260508083005 7 238 9.7 19.3 0.00 0.05 0.00 76 1010.8
20260508081504 7 233 8.0 19.3 0.00 0.05 0.00 78 1010.7
20260508075004 8 221 8.0 19.3 0.00 0.05 0.00 78 1011.0
20260508074504 8 237 12.9 19.3 0.00 0.05 0.00 78 1011.1
20260508073004 8 235 11.3 19.3 0.00 0.05 0.00 79 1011.0
20260508072504 8 245 11.3 19.3 0.00 0.05 0.00 79 1011.1
20260508072004 8 242 14.5 19.3 0.00 0.08 0.00 80 1011.1
20260508071504 8 236 12.9 19.3 0.00 0.08 0.00 80 1011.1
20260508070005 7 239 11.3 19.3 0.00 0.10 0.00 81 1011.1
20260508065004 7 242 11.3 16.1 0.00 0.13 0.00 82 1011.1
20260508064504 7 223 8.0 11.3 0.00 0.15 0.00 82 1011.1
20260508064004 7 234 8.0 11.3 0.00 0.20 0.00 82 1011.1
20260508063504 7 225 8.0 12.9 0.00 0.20 0.00 82 1011.1
20260508062505 8 239 9.7 12.9 0.00 0.20 0.00 82 1011.1
20260508062004 8 251 9.7 16.1 0.00 0.20 0.00 82 1011.0
20260508061504 8 250 9.7 16.1 0.00 0.20 0.00 83 1011.0
20260508061005 7 235 9.7 12.9 0.00 0.20 0.00 84 1010.9
20260508060005 7 255 9.7 12.9 0.00 0.20 0.00 84 1011.0
20260508055504 7 242 9.7 12.9 0.00 0.20 0.20 84 1010.9
20260508055004 7 244 9.7 14.5 0.00 0.20 0.20 84 1010.9
20260508054004 7 247 11.3 19.3 0.00 0.20 0.20 84 1010.9
20260508053504 7 245 9.7 19.3 0.00 0.20 0.20 84 1010.9
20260508053004 7 245 11.3 16.1 0.00 0.20 0.20 85 1010.8
20260508052004 8 240 9.7 16.1 0.00 0.20 0.20 83 1011.0
20260508051504 8 235 11.3 19.3 0.00 0.20 0.20 84 1011.0
20260508051004 8 267 14.5 19.3 0.00 0.20 0.20 85 1010.9
20260508050004 7 249 8.0 11.3 0.00 0.20 0.20 86 1011.0
20260508045504 7 233 9.7 11.3 0.00 0.20 0.20 86 1011.0
20260508044005 7 241 8.0 9.7 0.00 0.20 0.20 86 1011.0
20260508043005 8 238 4.8 8.0 0.00 0.20 0.20 85 1011.0
20260508042504 8 245 4.8 8.0 0.00 0.20 0.20 85 1011.0
20260508041504 8 255 4.8 8.0 0.00 0.20 0.20 84 1011.0
20260508040004 8 240 8.0 9.7 0.00 0.20 0.20 84 1011.0
20260508035504 8 243 8.0 9.7 0.00 0.20 0.20 85 1010.9
20260508034505 8 261 8.0 9.7 0.00 0.20 0.20 84 1010.7
20260508034005 8 230 6.4 12.9 0.00 0.20 0.20 83 1010.7
20260508033504 8 204 9.7 12.9 0.00 0.20 0.20 82 1010.6
20260508033005 9 203 6.4 14.5 0.00 0.20 0.20 82 1010.6
20260508032005 9 197 9.7 16.1 0.00 0.20 0.20 82 1010.4
20260508031504 9 192 11.3 14.5 0.00 0.20 0.20 82 1010.3
20260508031004 9 193 11.3 14.5 0.00 0.20 0.20 81 1010.2
20260508025004 10 203 4.8 11.3 0.00 0.20 0.20 80 1010.0
20260508024504 10 203 3.2 14.5 0.00 0.20 0.20 80 1009.9
20260508024005 10 202 9.7 14.5 0.03 0.20 0.20 80 1009.7
20260508023505 10 201 4.8 9.7 0.03 0.20 0.20 80 1009.6
20260508023005 10 181 4.8 9.7 0.03 0.20 0.20 80 1009.6
20260508022504 10 163 8.0 14.5 0.03 0.20 0.20 81 1009.5
20260508022004 10 162 8.0 19.3 0.03 0.20 0.20 81 1009.4
20260508021504 10 167 12.9 19.3 0.03 0.20 0.20 80 1009.3
20260508020004 10 177 11.3 19.3 0.03 0.20 0.20 81 1009.3
20260508015504 10 179 14.5 19.3 0.03 0.20 0.20 81 1009.3
20260508015004 10 138 8.0 16.1 0.03 0.20 0.20 82 1009.1
20260508014504 10 164 9.7 16.1 0.03 0.20 0.20 81 1009.4
20260508014004 10 169 11.3 14.5 0.00 0.18 0.18 79 1009.3
20260508013004 10 175 11.3 19.3 0.00 0.18 0.18 78 1009.1
20260508012504 10 166 14.5 19.3 0.00 0.18 0.18 79 1008.8
20260508012004 10 156 11.3 19.3 0.00 0.18 0.18 78 1008.6
20260508011504 10 144 11.3 19.3 0.03 0.18 0.18 77 1008.8
20260508011004 10 143 14.5 19.3 0.03 0.18 0.18 77 1008.6
20260508010004 10 94 9.7 19.3 0.03 0.18 0.18 79 1008.8
20260508005504 10 104 11.3 19.3 0.03 0.18 0.18 80 1008.7
20260508005004 10 90 12.9 19.3 0.03 0.18 0.18 80 1008.5
20260508004504 10 87 14.5 19.3 0.03 0.18 0.18 82 1008.3
20260508003504 10 89 14.5 20.9 0.03 0.18 0.18 83 1008.1
20260508002504 10 44 14.5 29.0 0.03 0.18 0.18 79 1009.0
20260508002004 11 24 20.9 29.0 0.03 0.18 0.18 78 1009.0
20260508001504 11 15 19.3 32.2 0.00 0.15 0.15 74 1009.1
20260508001004 12 17 19.3 32.2 0.00 0.15 0.15 69 1008.9
20260508000004 13 32 22.5 33.8 0.00 0.15 0.15 61 1008.6
20260507235504 13 24 16.1 20.9 0.00 0.15 0.15 56 1008.4
20260507235004 14 26 16.1 20.9 0.00 0.15 0.15 54 1008.0
20260507234504 14 30 14.5 20.9 0.00 0.15 0.15 52 1007.8
20260507234005 15 42 9.7 19.3 0.00 0.15 0.15 50 1007.7
20260507233505 15 35 12.9 19.3 0.00 0.15 0.15 48 1007.6
20260507233005 15 34 11.3 16.1 0.00 0.15 0.15 46 1007.4
20260507231505 16 116 0.0 0.0 0.00 0.15 0.15 46 1007.4
20260507231005 15 134 0.0 0.0 0.00 0.15 0.15 45 1007.4
20260507230005 15 135 1.6 4.8 0.00 0.15 0.15 49 1007.3
20260507225505 15 131 3.2 4.8 0.00 0.15 0.15 52 1007.3
20260507225005 14 128 3.2 4.8 0.00 0.15 0.15 54 1007.3
20260507224505 14 103 3.2 4.8 0.00 0.15 0.15 53 1007.4
20260507224005 13 60 1.6 4.8 0.00 0.15 0.15 55 1007.5
20260507223505 13 28 0.0 4.8 0.00 0.15 0.15 56 1007.4
20260507223005 13 29 1.6 4.8 0.00 0.15 0.15 56 1007.4
20260507222505 13 28 3.2 8.0 0.00 0.15 0.15 58 1007.4
20260507222005 12 26 4.8 14.5 0.00 0.15 0.15 59 1007.5
20260507221505 12 29 8.0 14.5 0.00 0.15 0.15 59 1007.5
20260507221005 12 17 8.0 16.1 0.00 0.15 0.15 61 1007.6
20260507220005 12 27 8.0 22.5 0.00 0.15 0.15 65 1007.6
20260507215505 12 21 11.3 33.8 0.00 0.15 0.15 63 1007.6
20260507214505 13 346 29.0 37.0 0.00 0.15 0.15 56 1007.8
20260507214005 13 358 11.3 29.0 0.00 0.15 0.15 57 1007.7
20260507213005 13 11 19.3 37.0 0.00 0.15 0.15 56 1007.9
20260507212505 15 12 22.5 37.0 0.00 0.15 0.15 51 1007.6
20260507212005 16 22 19.3 37.0 0.00 0.15 0.15 45 1007.6
20260507211506 17 25 11.3 20.9 0.00 0.15 0.15 43 1007.5
20260507211005 17 33 11.3 20.9 0.00 0.15 0.15 43 1007.6
20260507210006 16 27 9.7 20.9 0.00 0.15 0.15 43 1007.5
20260507205505 16 34 11.3 20.9 0.00 0.15 0.15 44 1007.5
20260507204505 17 35 1.6 19.3 0.00 0.15 0.15 44 1007.4
20260507204005 16 24 8.0 20.9 0.00 0.15 0.15 45 1007.4
20260507203505 16 346 6.4 20.9 0.00 0.15 0.15 45 1007.4
20260507203005 16 17 6.4 19.3 0.00 0.15 0.15 43 1007.4
20260507202505 16 10 9.7 16.1 0.00 0.15 0.15 46 1007.4
20260507201005 16 116 1.6 9.7 0.00 0.15 0.15 48 1007.6
20260507200005 15 73 0.0 0.0 0.00 0.15 0.15 51 1007.7
20260507195505 15 73 0.0 4.8 0.00 0.15 0.15 51 1007.6
20260507195005 15 73 1.6 8.0 0.00 0.15 0.15 52 1007.7
20260507194504 14 72 3.2 8.0 0.00 0.15 0.15 55 1007.8
20260507194005 14 53 3.2 8.0 0.00 0.15 0.15 54 1007.8
20260507193505 14 52 3.2 8.0 0.00 0.15 0.15 56 1007.9
20260507193005 14 21 1.6 9.7 0.00 0.15 0.15 58 1008.0
20260507192005 14 75 3.2 11.3 0.00 0.15 0.15 57 1008.0
20260507191505 14 99 1.6 14.5 0.00 0.15 0.15 59 1008.1
20260507191005 14 101 8.0 14.5 0.00 0.15 0.15 60 1008.1